This demonstration page uses our WeatherBlox Daily Observations layout. Learn more.

Left ArrowRight Arrow

Hourly Observations for September 2, 2022

Temp ( °F °C ) Dew Point ( °F °C ) Humidity (%) Winds ( mph kmh ) Pressure ( in mb ) Visibility ( mi km ) Precip ( " mm )
12:53 am 00:53 Clear 71 21.7 56 13.3 59 59 S 8 13 29.85 1011 10 16 0.00 0.00
1:53 am 01:53 Clear 68 20 56 13.3 65 65 S 5 7 29.85 1011 10 16 0.00 0.00
2:53 am 02:53 Clear 69 20.6 57 13.9 65 65 S 6 9 29.83 1010 10 16 0.00 0.00
3:53 am 03:53 Clear 68 20 59 15 73 73 SSW 7 11 29.84 1011 10 16 0.00 0.00
4:53 am 04:53 Clear 65 18.3 59 15 81 81 S 7 11 29.84 1011 10 16 0.00 0.00
5:53 am 05:53 Clear 67 19.4 61 16.1 81 81 SSW 7 11 29.85 1011 10 16 0.00 0.00
6:53 am 06:53 Clear 64 17.8 61 16.1 90 90 S 8 13 29.87 1012 10 16 0.00 0.00
7:53 am 07:53 Sunny 65 18.3 60 15.6 84 84 S 5 7 29.89 1012 10 16 0.00 0.00
8:53 am 08:53 Sunny 69 20.6 62 16.7 78 78 W 6 9 29.92 1013 10 16 0.00 0.00
9:53 am 09:53 Sunny 74 23.3 64 17.8 71 71 S 12 19 29.86 1011 10 16 0.00 0.00
10:53 am 10:53 Sunny 78 25.6 64 17.8 62 62 S 8 13 29.90 1013 10 16 0.00 0.00
11:53 am 11:53 Sunny 83 28.3 64 17.8 53 53 S 12 19 29.90 1013 10 16 0.00 0.00
12:53 pm 12:53 Mostly Sunny 87 30.6 65 18.3 48 48 SW 9 15 29.93 1014 10 16 0.00 0.00
1:53 pm 13:53 Sunny 85 29.4 64 17.8 50 50 VRB 5 7 29.90 1013 10 16 0.00 0.00
2:39 pm 14:39 Partly Cloudy with Nearby Thunderstorms 89 31.7 66 18.9 47 47 NNE 14 22 29.86 1011 10 16 0.00 0.00
2:53 pm 14:53 Partly Cloudy with Nearby Thunderstorms 91 32.8 65 18.3 42 42 VRB 6 9 29.92 1013 10 16 0.00 0.00
3:08 pm 15:08 Mostly Cloudy with Light Rain 83 28.3 66 18.9 57 57 SSW 9 15 29.84 1010 3 5 0.08 2.03
3:26 pm 15:26 Partly Cloudy with Nearby Thunderstorms 83 28.3 69 20.6 63 63 SW 6 9 29.83 1010 10 16 0.08 2.03
3:53 pm 15:53 Sunny 87 30.6 70 21.1 57 57 SW 5 7 29.89 1012 10 16 0.08 2.03
4:53 pm 16:53 Sunny 92 33.3 65 18.3 41 41 SW 5 7 29.90 1012 10 16 0.00 0.00
5:53 pm 17:53 Sunny 92 33.3 60 15.6 35 35 Calm 29.91 1013 10 16 0.00 0.00
6:53 pm 18:53 Sunny 87 30.6 69 20.6 55 55 ENE 3 6 29.93 1014 10 16 0.00 0.00
7:53 pm 19:53 Sunny 83 28.3 68 20 61 61 Calm 29.96 1015 10 16 0.00 0.00
8:53 pm 20:53 Clear 76 24.4 69 20.6 79 79 N 9 15 30.00 1016 10 16 0.00 0.00
9:53 pm 21:53 Clear 76 24.4 67 19.4 74 74 NNE 8 13 30.02 1017 10 16 0.00 0.00
10:53 pm 22:53 Clear 74 23.3 66 18.9 76 76 N 3 6 30.06 1018 10 16 0.00 0.00
11:53 pm 23:53 Clear 73 22.8 65 18.3 76 76 NNE 9 15 30.08 1019 10 16 0.00 0.00

Powered by AerisWeather